Santee, CA

1:31 AM PDT on October 01, 2016 (GMT -0700)
Gillespie

Weather History for KSEE - October, 2012

Change the Weather History Date:

Monday, October 8, 2012

  Actual Average Record
Temperature  
Mean Temperature 72 °F -  
Max Temperature 82 °F 80 °F 102 °F (2008)
Min Temperature 62 °F 54 °F 44 °F (2007)
Cooling Degree Days 7    
Growing Degree Days 22 (Base 50)    
Moisture  
Dew Point 59 °F    
Average Humidity 81    
Maximum Humidity 94    
Minimum Humidity 42    
Precipitation  
Precipitation 0.00 in - - ()
Sea Level Pressure  
Sea Level Pressure 29.98 in    
Wind  
Wind Speed 2 mph (WNW)    
Max Wind Speed 10 mph    
Max Gust Speed -    
Visibility 10 miles    
Events      
Averages and records for this station are not official NWS values.
T = Trace of Precipitation, MM = Missing Value Source: NWS Daily Summary

Daily Weather History Graph

Daily Weather History Graph

Search for Another Location

Airport or City:

Trip Planner

Search our weather history database for the weather conditions in past years. The results will help you decide how hot, cold, wet, or windy it might be!

Date:

Astronomy

Oct. 08, 2012 Rise Set
Actual Time 6:47 AM PDT 6:22 PM PDT
Civil Twilight 6:22 AM PDT 6:47 PM PDT
Nautical Twilight 5:54 AM PDT 7:15 PM PDT
Astronomical Twilight 5:25 AM PDT 7:44 PM PDT
Moon No Moon Rise 1:55 PM PDT (10/8)
Length of Visible Light 12h 24m
Length of Day
11h 35m
Last Quarter, 45% of the Moon is Illuminated
Oct 8
Last Quarter
Oct 15
New
Oct 21
First Quarter
Oct 29
Full
Nov 6
Last Quarter

Hourly Weather History & Observations

Time (PDT) Temp. Heat Index Dew Point Humidity Pressure Visibility Wind Dir Wind Speed Gust Speed Precip Events Conditions
12:15 AM 62.6 °F - 60.8 °F 94% 29.96 in 10.0 mi WNW 3.5 mph - N/A   Overcast
12:35 AM 62.6 °F - 60.8 °F 94% 29.96 in 10.0 mi Calm Calm - N/A   Overcast
12:55 AM 64.4 °F - 60.8 °F 88% 29.96 in 10.0 mi Calm Calm - N/A   Overcast
1:15 AM 64.4 °F - 60.8 °F 88% 29.96 in 10.0 mi Calm Calm - N/A   Overcast
1:35 AM 64.4 °F - 60.8 °F 88% 29.96 in 10.0 mi Calm Calm - N/A   Overcast
1:55 AM 64.4 °F - 60.8 °F 88% 29.96 in 10.0 mi Calm Calm - N/A   Overcast
2:15 AM 64.4 °F - 60.8 °F 88% 29.96 in 10.0 mi NW 3.5 mph - N/A   Overcast
2:35 AM 64.4 °F - 60.8 °F 88% 29.96 in 10.0 mi NW 3.5 mph - N/A   Overcast
2:55 AM 64.4 °F - 60.8 °F 88% 29.96 in 9.0 mi WSW 3.5 mph - N/A   Overcast
3:15 AM 64.4 °F - 60.8 °F 88% 29.96 in 8.0 mi West 3.5 mph - N/A   Overcast
3:35 AM 64.4 °F - 60.8 °F 88% 29.96 in 9.0 mi Calm Calm - N/A   Overcast
3:55 AM 64.4 °F - 60.8 °F 88% 29.95 in 8.0 mi Calm Calm - N/A   Overcast
4:15 AM 64.4 °F - 60.8 °F 88% 29.96 in 8.0 mi SW 3.5 mph - N/A   Overcast
4:35 AM 64.4 °F - 60.8 °F 88% 29.97 in 8.0 mi West 3.5 mph - N/A   Overcast
4:55 AM 64.4 °F - 60.8 °F 88% 29.97 in 9.0 mi West 3.5 mph - N/A   Overcast
5:15 AM 64.4 °F - 60.8 °F 88% 29.98 in 8.0 mi West 3.5 mph - N/A   Overcast
5:35 AM 64.4 °F - 60.8 °F 88% 29.98 in 9.0 mi NNE 3.5 mph - N/A   Overcast
5:55 AM 64.4 °F - 60.8 °F 88% 29.98 in 10.0 mi Calm Calm - N/A   Overcast
6:15 AM 64.4 °F - 60.8 °F 88% 29.98 in 7.0 mi NNW 3.5 mph - N/A   Overcast
6:47 AM 64.4 °F - 60.8 °F 88% 29.97 in 10.0 mi Variable 5.8 mph - N/A   Overcast
8:55 AM 66.2 °F - 59.0 °F 78% 30.00 in 10.0 mi Calm Calm - N/A   Overcast
9:47 AM 66.2 °F - 59.0 °F 78% 30.01 in 10.0 mi Calm Calm - N/A   Overcast
10:47 AM 69.8 °F - 60.8 °F 73% 29.99 in 15.0 mi Calm Calm - N/A   Mostly Cloudy
1:47 PM 82.4 °F 82.0 °F 57.2 °F 42% 29.93 in 20.0 mi West 10.4 mph - N/A   Clear
3:47 PM 78.8 °F - 57.2 °F 47% 29.93 in 20.0 mi West 9.2 mph - N/A   Clear
4:47 PM 75.2 °F - 57.2 °F 53% 29.94 in 25.0 mi West 9.2 mph - N/A   Clear
6:47 PM 69.8 °F - 57.2 °F 64% 29.95 in 12.0 mi SE 4.6 mph - N/A   Clear
9:15 PM 62.6 °F - 57.2 °F 82% 30.01 in 10.0 mi WNW 3.5 mph - N/A   Clear
9:35 PM 62.6 °F - 57.2 °F 82% 30.01 in 10.0 mi Calm Calm - N/A   Clear
9:55 PM 62.6 °F - 57.2 °F 82% 30.00 in 10.0 mi Calm Calm - N/A   Clear
10:15 PM 62.6 °F - 57.2 °F 82% 30.01 in 10.0 mi West 3.5 mph - N/A   Mostly Cloudy
10:35 PM 62.6 °F - 57.2 °F 82% 30.01 in 10.0 mi Calm Calm - N/A   Overcast
10:55 PM 64.4 °F - 57.2 °F 77% 30.01 in 10.0 mi Calm Calm - N/A   Overcast
11:15 PM 64.4 °F - 57.2 °F 77% 30.00 in 10.0 mi Calm Calm - N/A   Overcast
11:35 PM 64.4 °F - 57.2 °F 77% 30.00 in 10.0 mi WNW 3.5 mph - N/A   Overcast
11:55 PM 64.4 °F - 57.2 °F 77% 30.00 in 10.0 mi WNW 4.6 mph - N/A   Overcast